This is the latest recevied weather packets stored in our database for station/object VK6WB. If no packets are shown the sender has not sent any weather packets the latest 10 day(s).
| Time | Temp. | Humidity | Pressure | Rain* | Wind** | Luminosity | Snow |
|---|---|---|---|---|---|---|---|
| 1777729805 | 12.78° C | 66% | 1021.4 hPa | 0 mm | - | 841 W/m² | - |
| 1777729204 | 12.78° C | 67% | 1021.3 hPa | 0 mm | - | 841 W/m² | - |
| 1777728605 | 12.78° C | 67% | 1021.3 hPa | 0 mm | - | 841 W/m² | - |
| 1777728005 | 12.78° C | 67% | 1021.2 hPa | 0 mm | - | 790 W/m² | - |
| 1777727404 | 12.78° C | 68% | 1021.3 hPa | 0 mm | - | 790 W/m² | - |
| 1777726805 | 12.78° C | 68% | 1021.1 hPa | 0 mm | - | 790 W/m² | - |
| 1777726205 | 12.78° C | 68% | 1021.3 hPa | 0 mm | - | 841 W/m² | - |
| 1777725604 | 12.78° C | 67% | 1021.1 hPa | 0 mm | - | 893 W/m² | - |
| 1777725005 | 12.78° C | 66% | 1021.1 hPa | 0 mm | - | 945 W/m² | - |
| 1777724405 | 12.78° C | 66% | 1021.1 hPa | 0 mm | - | 996 W/m² | - |
| 1777723805 | 13.33° C | 66% | 1021 hPa | 0 mm | - | 1048 W/m² | - |
| 1777723205 | 13.33° C | 65% | 1021 hPa | 0 mm | - | 1151 W/m² | - |
| 1777722604 | 13.89° C | 64% | 1020.8 hPa | 0 mm | - | 1254 W/m² | - |
| 1777722005 | 13.89° C | 63% | 1020.8 hPa | 0 mm | - | 1254 W/m² | - |
| 1777721405 | 14.44° C | 62% | 1020.9 hPa | 0 mm | - | 1150 W/m² | - |
| 1777720805 | 14.44° C | 61% | 1020.8 hPa | 0 mm | - | 1150 W/m² | - |
| 1777720204 | 15° C | 60% | 1020.7 hPa | 0 mm | - | 1098 W/m² | - |
| 1777719605 | 15° C | 58% | 1020.7 hPa | 0 mm | - | 1047 W/m² | - |
| 1777719005 | 15.56° C | 57% | 1020.7 hPa | 0 mm | - | 1047 W/m² | - |
| 1777718405 | 15.56° C | 56% | 1020.6 hPa | 0 mm | - | 995 W/m² | - |
| 1777717805 | 15.56° C | 55% | 1020.5 hPa | 0 mm | - | 943 W/m² | - |
| 1777717204 | 16.11° C | 53% | 1020.4 hPa | 0 mm | - | 891 W/m² | - |
| 1777716605 | 16.11° C | 52% | 1020.3 hPa | 0 mm | - | 891 W/m² | - |
| 1777716005 | 16.67° C | 51% | 1020.1 hPa | 0 mm | - | 839 W/m² | - |
| 1777715405 | 16.67° C | 50% | 1020 hPa | 0 mm | - | 788 W/m² | - |
* Rain latest hour (hover to see other rain measurements)
** Current wind speed in m/s (hover to see current wind gust speed)